Weather History for Kiana, AK

Change the Weather History Date:

Thursday, November 28, 2013

  Actual Average (PASK) Record (PASK)
Temperature  
Mean Temperature -9 °F -  
Max Temperature -11 °F 4 °F 28 °F (2002)
Min Temperature -14 °F -3 °F -27 °F (2000)
Degree Days  
Heating Degree Days 74    
Moisture  
Dew Point -14 °F    
Average Humidity 81    
Maximum Humidity 87    
Minimum Humidity 77    
Precipitation  
Precipitation 0.00 in - - ()
Sea Level Pressure  
Sea Level Pressure 30.18 in    
Wind  
Wind Speed 2 mph (North)    
Max Wind Speed 9 mph    
Max Gust Speed -    
Visibility 10 miles    
Events Snow    
Averages and records for this station are not official NWS values.
T = Trace of Precipitation, MM = Missing Value Source: NWS Daily Summary

Daily Weather History Graph

Daily Weather History Graph

Search for Another Location

Airport:

Trip Planner

Search our weather history database for the weather conditions in past years. The results will help you decide how hot, cold, wet, or windy it might be!

Date:

Astronomy

Nov. 28, 2013 Rise Set
Actual Time 11:38 AM AKST 3:20 PM AKST
Civil Twilight 10:07 AM AKST 4:51 PM AKST
Nautical Twilight 8:52 AM AKST 6:06 PM AKST
Astronomical Twilight 7:46 AM AKST 7:12 PM AKST
Moon 4:33 AM AKST (11/28) 2:45 PM AKST (11/28)
Length of Visible Light 6h 43m
Length of Day
3h 42m
Waning Crescent, 21% of the Moon is Illuminated
Nov 28
Waning Crescent
Dec 2
New
Dec 9
First Quarter
Dec 17
Full
Dec 25
Last Quarter

Hourly Weather History & Observations

Time (AKST) Temp. Windchill Dew Point Humidity Pressure Visibility Wind Dir Wind Speed Gust Speed Precip Events Conditions
12:01 AM -4.0 °F -17.8 °F -9.0 °F 79% 30.15 in 10.0 mi Variable 6.9 mph - N/A   Clear
1:01 AM -8.0 °F - -11.9 °F 83% 30.14 in 10.0 mi Calm Calm - N/A   Clear
2:01 AM -7.1 °F - -11.0 °F 83% 30.15 in 10.0 mi Calm Calm - N/A   Partly Cloudy
3:01 AM -6.0 °F -14.7 °F -9.9 °F 83% 30.15 in 10.0 mi East 3.5 mph - N/A   Clear
4:01 AM -6.0 °F - -9.0 °F 87% 30.15 in 10.0 mi Calm Calm - N/A   Clear
5:01 AM -6.0 °F - -11.0 °F 79% 30.15 in 10.0 mi Calm Calm - N/A   Clear
6:01 AM -7.1 °F - -11.0 °F 83% 30.14 in 10.0 mi Calm Calm - N/A   Clear
7:01 AM -9.0 °F - -14.1 °F 79% 30.16 in 10.0 mi Calm Calm - N/A   Clear
8:01 AM -9.9 °F - -15.0 °F 78% 30.16 in 10.0 mi Calm Calm - N/A   Clear
9:01 AM -9.9 °F - -15.0 °F 78% 30.16 in 10.0 mi Calm Calm - N/A   Clear
10:01 AM -11.0 °F -20.4 °F -16.1 °F 78% 30.17 in 10.0 mi Variable 3.5 mph - N/A   Clear
11:01 AM -11.9 °F - -17.0 °F 78% 30.18 in 7.0 mi Calm Calm - N/A   Clear
11:26 AM -11.2 °F - -16.6 °F 77% 30.04 in 2.5 mi Calm Calm - 0.00 in Snow Light Snow
11:33 AM -11.2 °F - -16.6 °F 77% 30.04 in 9.0 mi Calm Calm - 0.00 in   Clear
12:01 PM -9.9 °F -19.2 °F -14.1 °F 82% 30.19 in 10.0 mi ENE 3.5 mph - 0.00 in   Clear
1:01 PM -7.1 °F - -11.0 °F 83% 30.19 in 10.0 mi Calm Calm - N/A   Clear
2:01 PM -6.0 °F - -9.0 °F 87% 30.20 in 10.0 mi Calm Calm - N/A   Clear
3:01 PM -9.9 °F -19.2 °F -15.0 °F 78% 30.22 in 10.0 mi NW 3.5 mph - N/A   Clear
4:01 PM -11.0 °F -28.8 °F -15.0 °F 83% 30.23 in 10.0 mi North 9.2 mph - N/A   Clear
5:01 PM -11.9 °F - -17.0 °F 78% 30.22 in 10.0 mi Calm Calm - N/A   Clear
6:01 PM -9.9 °F -19.2 °F -14.1 °F 82% 30.22 in 10.0 mi WNW 3.5 mph - N/A   Clear
7:01 PM -14.1 °F - -18.9 °F 79% 30.25 in 10.0 mi Calm Calm - N/A   Clear
8:01 PM -11.0 °F -20.4 °F -15.0 °F 83% 30.25 in 10.0 mi North 3.5 mph - N/A   Scattered Clouds
9:01 PM -13.0 °F -27.0 °F -18.0 °F 78% 30.27 in 10.0 mi NW 5.8 mph - N/A   Partly Cloudy
10:01 PM -11.0 °F -20.4 °F -15.0 °F 83% 30.27 in 10.0 mi ENE 3.5 mph - N/A   Clear
11:01 PM -11.0 °F -24.6 °F -16.1 °F 78% 30.27 in 10.0 mi NNW 5.8 mph - N/A   Clear